FW2347 Weather Reports


Display with metric or nautical units.
time (UTC)temp
F
wind
direction
speed
MPH
gust
MPH
rain 1hr
in
rain 24hr
in
rain mn
in
humidity
%
barometer
mb
20260906221545 68 0.0 0.0 0.00 0.00 0.00 62 1019.7
20260906220018 69 360 0.0 0.0 0.00 0.00 0.00 60 1019.6
20260906214521 70 5 0.0 0.0 0.00 0.00 0.00 59 1019.6
20260906213005 70 5 0.0 0.0 0.00 0.00 0.00 59 1019.7
20260906211502 70 0.0 0.0 0.00 0.00 0.00 58 1019.5
20260906210003 72 5 0.0 0.0 0.00 0.00 0.00 56 1019.5
20260906204559 73 360 0.0 0.0 0.00 0.00 0.00 54 1019.5
20260906203055 74 5 0.0 0.0 0.00 0.00 0.00 52 1019.5
20260906201604 74 5 0.0 0.0 0.00 0.00 0.00 51 1019.3
20260906194554 77 5 0.0 0.0 0.00 0.00 0.00 47 1019.1
20260906193035 79 5 0.0 0.0 0.00 0.00 0.00 45 1018.8
20260906191531 82 360 0.0 0.0 0.00 0.00 0.00 42 1018.5
20260906190012 84 5 0.0 0.0 0.00 0.00 0.00 39 1018.2
20260906184511 85 360 0.0 0.0 0.00 0.00 0.00 38 1018.2
20260906183106 86 0.0 0.0 0.00 0.00 0.00 37 1017.9
20260906181554 88 5 0.0 0.0 0.00 0.00 0.00 36 1017.5
20260906174535 90 0.0 0.0 0.00 0.00 0.00 33 1017.3
20260906173008 92 5 0.0 0.0 0.00 0.00 0.00 32 1017.3
20260906171505 92 360 0.0 0.0 0.00 0.00 0.00 31 1017.3
20260906170052 94 5 0.0 0.0 0.00 0.00 0.00 30 1017.2
20260906164523 95 360 0.0 0.0 0.00 0.00 0.00 30 1017.1
20260906163001 95 360 0.0 0.0 0.00 0.00 0.00 30 1017.0
20260906161603 96 0.0 0.0 0.00 0.00 0.00 28 1016.9
20260906160051 99 5 0.0 0.0 0.00 0.00 0.00 24 1016.9
20260906154543 99 5 0.0 0.0 0.00 0.00 0.00 17 1016.9
20260906153023 100 5 0.0 0.0 0.00 0.00 0.00 16 1016.9
20260906151527 101 5 0.0 0.0 0.00 0.00 0.00 15 1016.8
20260906150042 102 5 0.0 0.0 0.00 0.00 0.00 15 1016.9
20260906144518 102 0.0 0.0 0.00 0.00 0.00 15 1016.9
20260906143105 101 360 0.0 0.0 0.00 0.00 0.00 16 1016.9
20260906141601 101 0.0 0.0 0.00 0.00 0.00 16 1016.9
20260906140053 101 360 0.0 0.0 0.00 0.00 0.00 16 1017.2
20260906134542 102 360 0.0 0.0 0.00 0.00 0.00 17 1017.2
20260906133027 102 360 0.0 0.0 0.00 0.00 0.00 17 1017.3
20260906131527 102 0.0 0.0 0.00 0.00 0.00 17 1017.3
20260906130017 102 360 0.0 0.0 0.00 0.00 0.00 18 1017.2
20260906124600 101 5 0.0 0.0 0.00 0.00 0.00 19 1017.1
20260906123050 101 360 0.0 0.0 0.00 0.00 0.00 22 1017.2
20260906121538 100 5 0.0 0.0 0.00 0.00 0.00 23 1017.5
20260906120027 100 5 0.0 0.0 0.00 0.00 0.00 25 1017.5
20260906114527 99 360 0.0 0.0 0.00 0.00 0.00 26 1017.7
20260906113105 97 5 0.0 0.0 0.00 0.00 0.00 27 1017.9
20260906111539 97 0.0 0.0 0.00 0.00 0.00 29 1018.0
20260906110040 96 5 0.0 0.0 0.00 0.00 0.00 33 1018.2
20260906104501 93 5 0.0 0.0 0.00 0.00 0.00 36 1018.4
20260906103055 92 0.0 0.0 0.00 0.00 0.00 38 1018.5
20260906101535 91 360 0.0 0.0 0.00 0.00 0.00 40 1018.7
20260906100022 89 360 0.0 0.0 0.00 0.00 0.00 42 1018.8
20260906094524 89 360 0.0 0.0 0.00 0.00 0.00 42 1018.9
20260906093109 86 360 0.0 0.0 0.00 0.00 0.00 44 1019.0
20260906091553 85 360 0.0 0.0 0.00 0.00 0.00 46 1019.1
20260906090048 84 0.0 0.0 0.00 0.00 0.00 48 1019.1
20260906084525 82 0.0 0.0 0.00 0.00 0.00 52 1019.1
20260906083012 81 0.0 0.0 0.00 0.00 0.00 54 1019.0
20260906081603 80 360 0.0 0.0 0.00 0.00 0.00 56 1019.1
20260906080046 77 360 0.0 0.0 0.00 0.00 0.00 61 1019.0
20260906074509 74 360 0.0 0.0 0.00 0.00 0.00 65 1019.1
20260906073052 72 360 0.0 0.0 0.00 0.00 0.00 68 1019.2
20260906071526 70 360 0.0 0.0 0.00 0.00 0.00 70 1019.3
20260906070014 69 5 0.0 0.0 0.00 0.00 0.00 72 1019.2
20260906064601 67 5 0.0 0.0 0.00 0.00 0.00 73 1019.2
20260906063055 65 5 0.0 0.0 0.00 0.00 0.00 73 1019.2
20260906061546 63 5 0.0 0.0 0.00 0.00 0.00 72 1019.2
20260906060031 62 360 0.0 0.0 0.00 0.00 0.00 72 1019.1
20260906054519 61 360 0.0 0.0 0.00 0.00 0.00 70 1019.2
20260906053005 60 5 0.0 0.0 0.00 0.00 0.00 71 1019.0
20260906051602 60 5 0.0 0.0 0.00 0.00 0.00 72 1019.0
20260906050104 60 360 0.0 0.0 0.00 0.00 0.00 73 1018.9
20260906044541 61 5 0.0 0.0 0.00 0.00 0.00 73 1018.8
20260906043024 62 0.0 0.0 0.00 0.00 0.00 74 1018.9
20260906041504 62 360 0.0 0.0 0.00 0.00 0.00 73 1019.0
20260906040137 62 5 0.0 0.0 0.00 0.00 0.00 74 1019.0
20260906034556 63 360 0.0 0.0 0.00 0.00 0.00 74 1019.1
20260906033039 63 360 0.0 0.0 0.00 0.00 0.00 74 1019.2
20260906031541 63 360 0.0 0.0 0.00 0.00 0.00 74 1019.2
20260906030034 63 5 0.0 0.0 0.00 0.00 0.00 74 1019.2
20260906024510 64 360 0.0 0.0 0.00 0.00 0.00 73 1019.2
20260906023104 64 5 0.0 0.0 0.00 0.00 0.00 73 1019.2
20260906021606 64 360 0.0 0.0 0.00 0.00 0.00 73 1019.2
20260906014552 64 5 0.0 0.0 0.00 0.00 0.00 73 1019.3
20260906013022 65 5 0.0 0.0 0.00 0.00 0.00 73 1019.3
20260906011510 65 5 0.0 0.0 0.00 0.00 0.00 72 1019.3
20260906010106 66 0.0 0.0 0.00 0.00 0.00 72 1019.4
20260906004539 67 360 0.0 0.0 0.00 0.00 0.00 71 1019.5
20260906003025 66 5 0.0 0.0 0.00 0.00 0.00 72 1019.5
20260906001505 65 5 0.0 0.0 0.00 0.00 0.00 72 1019.6
20260906000101 66 360 0.0 0.0 0.00 0.00 0.00 71 1019.6
20260905234546 67 0.0 0.0 0.00 0.00 0.00 70 1019.7
20260905233014 68 0.0 0.0 0.00 0.00 0.00 69 1019.8
20260905231505 68 5 0.0 0.0 0.00 0.00 0.00 69 1019.8
20260905230051 69 360 0.0 0.0 0.00 0.00 0.00 67 1019.9
20260905224526 69 0.0 0.0 0.00 0.00 0.00 67 1019.8
20260905223031 69 5 0.0 0.0 0.00 0.00 0.00 67 1019.8